| time (UTC) | temp F | wind direction | speed knots | gust knots | rain 1hr in | rain 24hr in | rain mn in | humidity % | barometer mb |
| 20260507000029 | 67 | 0 | 0.0 | 3.5 | 0.00 | 0.00 | 0.00 | 71 | 1008.2 |
| 20260506234529 | 67 | 0 | 0.0 | 1.7 | 0.00 | 0.00 | 0.00 | 71 | 1007.9 |
| 20260506233030 | 67 | 0 | 0.0 | 1.7 | 0.00 | 0.00 | 0.00 | 70 | 1007.9 |
| 20260506231528 | 68 | 0 | 0.0 | 3.5 | 0.00 | 0.00 | 0.00 | 69 | 1007.9 |
| 20260506230031 | 68 | 0 | 0.0 | 2.6 | 0.00 | 0.00 | 0.00 | 68 | 1007.9 |
| 20260506224527 | 68 | 212 | 0.0 | 2.6 | 0.00 | 0.00 | 0.00 | 68 | 1007.5 |
| 20260506223029 | 69 | 0 | 0.0 | 0.9 | 0.00 | 0.00 | 0.00 | 68 | 1007.8 |
| 20260506221530 | 68 | 215 | 0.0 | 4.3 | 0.00 | 0.00 | 0.00 | 69 | 1007.8 |
| 20260506220030 | 68 | 312 | 0.0 | 4.3 | 0.00 | 0.00 | 0.00 | 69 | 1007.7 |
| 20260506214528 | 68 | 262 | 0.0 | 1.7 | 0.00 | 0.00 | 0.00 | 69 | 1007.6 |
| 20260506213029 | 68 | 190 | 0.0 | 4.3 | 0.00 | 0.00 | 0.00 | 69 | 1007.5 |
| 20260506211530 | 67 | 0 | 0.0 | 1.7 | 0.00 | 0.00 | 0.00 | 70 | 1007.5 |
| 20260506210033 | 67 | 0 | 0.0 | 3.5 | 0.00 | 0.00 | 0.00 | 70 | 1007.4 |
| 20260506204529 | 67 | 249 | 0.0 | 4.3 | 0.00 | 0.00 | 0.00 | 71 | 1007.1 |
| 20260506203039 | 67 | 141 | 0.0 | 7.0 | 0.00 | 0.00 | 0.00 | 70 | 1007.3 |
| 20260506201538 | 66 | 252 | 0.0 | 6.1 | 0.00 | 0.00 | 0.00 | 72 | 1007.2 |
| 20260506200035 | 65 | 0 | 0.0 | 2.6 | 0.00 | 0.00 | 0.00 | 74 | 1007.3 |
| 20260506194530 | 65 | 172 | 0.0 | 4.3 | 0.00 | 0.00 | 0.00 | 74 | 1007.6 |
| 20260506193031 | 64 | 0 | 0.9 | 7.0 | 0.00 | 0.00 | 0.00 | 74 | 1007.9 |
| 20260506191532 | 64 | 0 | 0.0 | 11.3 | 0.00 | 0.00 | 0.00 | 73 | 1008.0 |
| 20260506190037 | 64 | 91 | 0.9 | 9.6 | 0.00 | 0.00 | 0.00 | 73 | 1008.0 |
| 20260506184535 | 64 | 0 | 0.0 | 6.1 | 0.00 | 0.00 | 0.00 | 74 | 1008.1 |
| 20260506183033 | 64 | 0 | 0.0 | 5.2 | 0.00 | 0.00 | 0.00 | 75 | 1008.0 |
| 20260506181530 | 64 | 271 | 0.0 | 6.1 | 0.00 | 0.00 | 0.00 | 76 | 1008.1 |
| 20260506180032 | 64 | 0 | 0.0 | 4.3 | 0.00 | 0.00 | 0.00 | 75 | 1008.3 |
| 20260506174530 | 65 | 311 | 0.9 | 7.0 | 0.00 | 0.00 | 0.00 | 74 | 1008.6 |
| 20260506173033 | 66 | 170 | 0.0 | 0.9 | 0.00 | 0.00 | 0.00 | 77 | 1008.4 |
| 20260506171530 | 66 | 0 | 0.0 | 0.9 | 0.00 | 0.00 | 0.00 | 79 | 1008.1 |
| 20260506170029 | 65 | 0 | 0.0 | 1.7 | 0.00 | 0.00 | 0.00 | 80 | 1008.5 |
| 20260506164528 | 64 | 0 | 0.0 | 1.7 | 0.00 | 0.00 | 0.00 | 80 | 1008.8 |
| 20260506163035 | 63 | 0 | 0.0 | 0.9 | 0.00 | 0.00 | 0.00 | 79 | 1009.4 |
| 20260506161530 | 63 | 0 | 0.0 | 1.7 | 0.00 | 0.00 | 0.00 | 76 | 1009.9 |
| 20260506160031 | 64 | 0 | 0.0 | 1.7 | 0.00 | 0.00 | 0.00 | 73 | 1010.1 |
| 20260506154532 | 66 | 0 | 0.0 | 4.3 | 0.00 | 0.00 | 0.00 | 78 | 1010.1 |
| 20260506153027 | 68 | 0 | 0.0 | 7.0 | 0.00 | 0.00 | 0.00 | 61 | 1009.7 |
| 20260506151529 | 68 | 0 | 0.0 | 7.0 | 0.00 | 0.00 | 0.00 | 61 | 1009.8 |
| 20260506150029 | 68 | 168 | 0.0 | 5.2 | 0.00 | 0.00 | 0.00 | 58 | 1009.8 |
| 20260506144534 | 69 | 120 | 0.9 | 7.0 | 0.00 | 0.00 | 0.00 | 57 | 1010.1 |
| 20260506143029 | 69 | 0 | 0.0 | 5.2 | 0.00 | 0.00 | 0.00 | 57 | 1010.0 |
| 20260506141533 | 70 | 0 | 0.0 | 4.3 | 0.00 | 0.00 | 0.00 | 57 | 1009.9 |
| 20260506140029 | 68 | 229 | 0.9 | 6.1 | 0.00 | 0.00 | 0.00 | 59 | 1009.9 |
| 20260506134527 | 68 | 0 | 0.0 | 3.5 | 0.00 | 0.00 | 0.00 | 59 | 1009.9 |
| 20260506133028 | 68 | 317 | 0.0 | 6.1 | 0.00 | 0.00 | 0.00 | 60 | 1009.9 |
| 20260506131537 | 69 | 322 | 0.0 | 3.5 | 0.00 | 0.00 | 0.00 | 60 | 1010.2 |
| 20260506130028 | 68 | 177 | 0.0 | 4.3 | 0.00 | 0.00 | 0.00 | 61 | 1010.0 |
| 20260506124529 | 68 | 0 | 0.0 | 3.5 | 0.00 | 0.00 | 0.00 | 61 | 1009.8 |
| 20260506123028 | 66 | 0 | 0.0 | 4.3 | 0.00 | 0.00 | 0.00 | 73 | 1009.9 |
| 20260506121531 | 65 | 0 | 0.0 | 3.5 | 0.00 | 0.00 | 0.00 | 65 | 1010.1 |
| 20260506120033 | 65 | 138 | 0.0 | 2.6 | 0.00 | 0.00 | 0.00 | 65 | 1010.0 |
| 20260506114533 | 65 | 0 | 0.0 | 4.3 | 0.00 | 0.00 | 0.00 | 66 | 1010.1 |
| 20260506113030 | 65 | 174 | 0.0 | 7.8 | 0.00 | 0.00 | 0.00 | 66 | 1010.3 |
| 20260506111527 | 64 | 0 | 0.0 | 4.3 | 0.00 | 0.00 | 0.00 | 79 | 1010.1 |
| 20260506110033 | 63 | 0 | 0.0 | 3.5 | 0.00 | 0.00 | 0.00 | 71 | 1010.1 |
| 20260506104530 | 62 | 0 | 0.0 | 1.7 | 0.00 | 0.00 | 0.00 | 72 | 1010.0 |
| 20260506103036 | 62 | 0 | 0.0 | 1.7 | 0.00 | 0.00 | 0.00 | 74 | 1009.9 |
| 20260506101543 | 61 | 0 | 0.0 | 1.7 | 0.00 | 0.00 | 0.00 | 74 | 1010.1 |
| 20260506100037 | 62 | 0 | 0.0 | 1.7 | 0.00 | 0.00 | 0.00 | 74 | 1010.0 |
| 20260506094527 | 62 | 43 | 0.0 | 0.9 | 0.00 | 0.00 | 0.00 | 74 | 1009.9 |
| 20260506093038 | 62 | 0 | 0.0 | 1.7 | 0.00 | 0.00 | 0.00 | 73 | 1009.9 |
| 20260506091529 | 62 | 0 | 0.0 | 1.7 | 0.00 | 0.00 | 0.00 | 73 | 1009.9 |
| 20260506090028 | 62 | 0 | 0.0 | 6.1 | 0.00 | 0.00 | 0.00 | 73 | 1010.0 |
| 20260506084528 | 62 | 0 | 0.0 | 3.5 | 0.00 | 0.00 | 0.00 | 73 | 1010.1 |
| 20260506083033 | 63 | 0 | 0.0 | 2.6 | 0.00 | 0.00 | 0.00 | 72 | 1010.0 |
| 20260506081536 | 63 | 177 | 0.0 | 1.7 | 0.00 | 0.00 | 0.00 | 72 | 1010.1 |
| 20260506073039 | 64 | 0 | 0.0 | 2.6 | 0.00 | 0.00 | 0.00 | 70 | 1010.3 |
| 20260506071527 | 64 | 0 | 0.0 | 1.7 | 0.00 | 0.00 | 0.00 | 70 | 1010.4 |
| 20260506061528 | 65 | 0 | 0.0 | 1.7 | 0.00 | 0.00 | 0.00 | 66 | 1010.7 |
| 20260506044601 | 66 | 0 | 0.0 | 0.0 | 0.00 | 0.00 | 0.00 | 62 | 1011.3 |
| 20260506043032 | 66 | 0 | 0.0 | 1.7 | 0.00 | 0.00 | 0.00 | 60 | 1011.2 |
| 20260506041533 | 67 | 0 | 0.0 | 0.9 | 0.00 | 0.00 | 0.00 | 60 | 1011.2 |
| 20260506040032 | 67 | 0 | 0.0 | 0.9 | 0.00 | 0.00 | 0.00 | 59 | 1011.1 |
| 20260506034559 | 67 | 0 | 0.0 | 0.9 | 0.00 | 0.00 | 0.00 | 58 | 1011.2 |
| 20260506033032 | 68 | 0 | 0.0 | 0.0 | 0.00 | 0.00 | 0.00 | 56 | 1011.1 |
| 20260506031533 | 68 | 0 | 0.0 | 1.7 | 0.00 | 0.00 | 0.00 | 55 | 1011.2 |
| 20260506030030 | 68 | 0 | 0.0 | 0.9 | 0.00 | 0.00 | 0.00 | 54 | 1011.2 |
| 20260506024532 | 68 | 282 | 0.0 | 4.3 | 0.00 | 0.00 | 0.00 | 53 | 1011.1 |
| 20260506023033 | 69 | 0 | 0.0 | 2.6 | 0.00 | 0.00 | 0.00 | 53 | 1011.2 |
| 20260506021533 | 69 | 0 | 0.0 | 1.7 | 0.00 | 0.00 | 0.00 | 52 | 1011.2 |
| 20260506020028 | 69 | 0 | 0.0 | 0.9 | 0.00 | 0.00 | 0.00 | 51 | 1011.1 |
| 20260506014530 | 70 | 0 | 0.0 | 1.7 | 0.00 | 0.00 | 0.00 | 51 | 1011.1 |
| 20260506013029 | 70 | 0 | 0.0 | 1.7 | 0.00 | 0.00 | 0.00 | 50 | 1011.0 |
| 20260506011527 | 71 | 0 | 0.0 | 5.2 | 0.00 | 0.00 | 0.00 | 48 | 1010.6 |
| 20260506010030 | 72 | 195 | 0.0 | 2.6 | 0.00 | 0.00 | 0.00 | 46 | 1010.6 |
| 20260506004536 | 73 | 0 | 0.0 | 5.2 | 0.00 | 0.00 | 0.00 | 53 | 1010.3 |
| 20260506003038 | 74 | 0 | 0.0 | 1.7 | 0.00 | 0.00 | 0.00 | 38 | 1010.1 |
| 20260506001527 | 74 | 252 | 0.0 | 0.9 | 0.00 | 0.00 | 0.00 | 36 | 1010.0 |